FW8660 Weather Reports


time (UTC)temp
C
wind
direction
speed
KPH
gust
KPH
rain 1hr
cm
rain 24hr
cm
rain mn
cm
humidity
%
barometer
mb
20260504081527 18 267 4.8 9.7 0.00 0.00 0.00 85 1013.3
20260504044530 16 97 6.4 14.5 0.00 0.00 0.00 90 1012.7
20260504043031 16 90 9.7 14.5 0.00 0.00 0.00 90 1012.6
20260504041534 16 107 6.4 14.5 0.00 0.00 0.00 90 1012.7
20260504040030 16 97 8.0 12.9 0.00 0.00 0.00 90 1012.5
20260504034526 16 71 8.0 14.5 0.00 0.00 0.00 89 1012.8
20260504033028 16 106 4.8 11.3 0.00 0.00 0.00 89 1012.9
20260504031528 17 131 1.6 9.7 0.00 0.00 0.00 89 1012.9
20260504030029 17 113 3.2 9.7 0.00 0.00 0.00 89 1013.1
20260504024528 17 111 1.6 4.8 0.00 0.00 0.00 89 1013.2
20260504023028 17 96 4.8 9.7 0.00 0.00 0.00 89 1013.2
20260504021530 17 110 1.6 9.7 0.00 0.00 0.00 89 1013.2
20260504020028 17 108 1.6 6.4 0.00 0.00 0.00 89 1013.4
20260504014534 17 0 0.0 4.8 0.00 0.00 0.00 89 1013.3
20260504013032 17 67 3.2 4.8 0.00 0.00 0.00 89 1013.4
20260504011530 17 0 0.0 1.6 0.00 0.00 0.00 89 1013.6
20260504010028 17 98 0.0 9.7 0.00 0.00 0.00 89 1013.6
20260504004529 17 109 4.8 11.3 0.00 0.00 0.00 88 1013.7
20260504003032 17 89 4.8 12.9 0.00 0.00 0.00 88 1013.7
20260504001531 17 83 8.0 14.5 0.00 0.00 0.00 88 1013.9
20260504000028 17 69 6.4 12.9 0.00 0.00 0.00 88 1013.8
20260503234539 17 92 3.2 14.5 0.00 0.00 0.00 87 1014.0
20260503233036 17 67 9.7 14.5 0.00 0.00 0.00 87 1014.1
20260503231533 17 62 6.4 14.5 0.00 0.00 0.00 86 1014.0
20260503230028 17 75 4.8 11.3 0.00 0.00 0.00 86 1014.2
20260503224529 18 96 6.4 12.9 0.00 0.00 0.00 85 1014.2
20260503223027 18 69 3.2 8.0 0.00 0.00 0.00 85 1014.3
20260503221534 18 84 3.2 9.7 0.00 0.00 0.00 84 1014.5
20260503220028 18 75 6.4 12.9 0.00 0.00 0.00 84 1014.6
20260503214530 18 84 8.0 14.5 0.00 0.00 0.00 84 1014.7
20260503213027 18 103 6.4 14.5 0.00 0.00 0.00 84 1014.8
20260503211528 18 49 9.7 14.5 0.00 0.00 0.00 84 1014.7
20260503210028 18 92 11.3 17.7 0.00 0.00 0.00 84 1014.6
20260503204530 18 66 11.3 17.7 0.00 0.00 0.00 83 1014.6
20260503203036 18 99 12.9 17.7 0.00 0.00 0.00 83 1014.5
20260503201530 18 94 8.0 12.9 0.00 0.00 0.00 82 1014.4
20260503200032 18 88 11.3 20.9 0.00 0.00 0.00 82 1014.0
20260503194528 18 106 12.9 20.9 0.00 0.00 0.00 82 1013.6
20260503193028 17 113 11.3 19.3 0.00 0.00 0.00 82 1013.4
20260503191534 17 97 14.5 24.1 0.00 0.00 0.00 81 1013.1
20260503190031 18 93 16.1 22.5 0.00 0.00 0.00 81 1012.9
20260503184529 18 103 14.5 22.5 0.00 0.00 0.00 80 1012.9
20260503183028 18 94 16.1 25.7 0.00 0.00 0.00 80 1012.7
20260503181529 18 98 17.7 32.2 0.00 0.00 0.00 79 1012.6
20260503180030 18 97 17.7 27.4 0.00 0.00 0.00 78 1012.5
20260503174532 19 76 17.7 30.6 0.00 0.00 0.00 77 1012.3
20260503173031 20 111 16.1 27.4 0.00 0.00 0.00 76 1012.3
20260503171528 20 92 12.9 25.7 0.00 0.00 0.00 76 1012.1